Retour au catalogue

ONEWEB-0697

ActifCommunicationsPO
NORAD 61603·PAYLOAD·🇬🇧 United Kingdom

Lancé Oct 20, 2024 depuis Vandenberg Space Force Base

Loading…

Prochains Passages (prochaines 24 heures)

TLE

FraisSource: CelesTrak SupGP

Époque: Sep 14, 2026, 14:14 UTC

1 61603C 24188K   26257.59323333  .00000307  00000+0  86860-3 0  2579
2 61603  87.8979   3.2910 0001162  84.3203  33.8877 13.11419511    15

Suivez ONEWEB-0697 en temps réel avec AllMySat

Download on the App Store